[[{"header":{"parameterUnit":"m.s-1","parameterCategory":1,"la1":30.2991,"la2":30.254,"lo1":-89.0895,"lo2":-89.0444,"dy":0.0017,"dx":0.0017,"nx":28,"ny":28,"refTime":"2025-12-03T03:00:00:Z","depth":0,"parameterNumber":2,"parameterNumberName":"U-component_of_WINDS"},"data":[0,0,0,0,0,0,0,0,0,0,0,0,0,0,0,0,0,0,0,0,0,0,0,0,0,0,0,0,0,0,0,0,0,0,0,0,0,0,0,0,0,0,0,0,0,0,0,0,0,0,0,0,0,0,0,0,0,0,-3.1522,-3.1521,0,-3.1503,-3.1503,-3.1503,-3.1418,-3.1416,-3.1414,-3.1412,-3.1394,-3.1395,-3.1397,0,0,0,0,0,0,0,0,0,0,0,0,0,-3.1485,-3.1486,-3.1522,-3.1521,-3.1521,-3.1503,-3.1503,-3.1503,-3.1418,-3.1416,-3.1413,-3.1411,-3.1394,-3.1395,-3.1397,0,0,0,0,0,0,0,0,0,0,0,0,0,-3.1488,-3.1487,-3.1522,-3.1477,-3.1473,-3.1503,-3.1503,-3.1503,-3.1419,-3.1416,-3.1413,-3.141,-3.1393,-3.1395,-3.1397,-3.147,0,0,-3.1403,-3.1404,0,0,0,0,0,0,0,0,-3.1487,-3.1489,-3.1484,-3.148,-3.1475,-3.146,-3.1483,-3.1492,-3.1419,-3.1439,-3.1412,-3.1408,-3.1418,-3.1418,-3.1421,-3.1469,-3.1468,-3.1404,-3.1405,-3.1406,-3.1406,0,0,0,0,0,0,0,-3.1487,-3.1489,-3.1514,-3.1484,-3.1479,-3.1458,-3.1455,-3.1485,-3.1446,-3.1437,-3.1431,-3.143,-3.1416,-3.142,-3.142,-3.1468,-3.1404,-3.1405,-3.1407,-3.1408,-3.1575,-3.1578,0,0,0,0,0,0,-3.1493,-3.149,-3.1515,-3.1514,-3.1474,-3.1461,-3.1458,-3.1468,-3.1445,-3.1439,-3.1432,-3.1426,-3.1417,-3.1418,-3.1419,-3.1503,-3.1406,-3.1408,-3.1409,-3.1572,-3.1576,-3.1579,0,0,0,0,0,0,-3.1493,-3.1497,-3.1516,-3.15,-3.1501,-3.1465,-3.1477,-3.1469,-3.1473,-3.1442,-3.1434,-3.1444,-3.1415,-3.1416,-3.1458,-3.1501,-3.1409,-3.1411,-3.1568,-3.1573,-3.1578,-3.1672,0,0,0,0,0,0,-3.1492,-3.1497,-3.1524,-3.1501,-3.1502,-3.1554,-3.1479,-3.1471,-3.1476,-3.1468,-3.145,-3.1444,-3.1413,-3.1455,-3.146,-3.1503,-3.1412,-3.1564,-3.157,-3.1576,-3.1665,-3.1679,-3.1692,0,0,0,0,0,-3.1491,-3.1551,-3.1526,-3.1529,-3.1535,-3.1557,-3.1558,-3.152,-3.148,-3.1507,-3.1487,-3.1445,-3.1496,-3.146,-3.1465,-3.1509,-3.1561,-3.1569,-3.1576,-3.1658,-3.1676,-3.1691,0,0,0,0,0,0,-3.158,-3.1547,-3.1519,-3.1573,-3.1568,-3.1543,-3.1575,-3.154,-3.1547,-3.1538,-3.1491,-3.1488,-3.1537,-3.1527,-3.1488,-3.1578,-3.1521,-3.153,-3.1583,-3.16,-3.1613,-3.1614,-3.1414,0,0,0,0,0,-3.1606,-3.1626,-3.1597,-3.1647,-3.1647,-3.1612,-3.162,-3.1591,-3.1585,-3.1583,-3.1566,-3.1562,-3.1577,-3.1587,-3.16,-3.1663,-3.1658,-3.1695,-3.1709,-3.172,-3.1728,-3.1761,-3.1777,-3.1603,-3.1603,-3.1603,0,0,-3.1659,-3.1644,-3.166,-3.1665,-3.1658,-3.1681,-3.1611,-3.1637,-3.1654,-3.1587,-3.1625,-3.1613,-3.1605,-3.1658,-3.168,-3.1651,-3.1775,-3.1729,-3.1739,-3.174,-3.177,-3.1787,-3.1801,-3.1608,-3.1607,-3.1606,0,0,-3.1768,-3.1759,-3.18,-3.1795,-3.1785,-3.1762,-3.1772,-3.1752,-3.1741,-3.1779,-3.1729,-3.1748,-3.1775,-3.1771,-3.1773,-3.1882,-3.1844,-3.1888,-3.1958,-3.1991,-3.2005,-3.2017,-3.2056,-3.207,-3.1896,-3.1896,-3.1896,0,-3.1836,-3.1868,-3.1826,-3.1856,-3.186,-3.18,-3.1842,-3.1839,-3.1835,-3.1839,-3.1806,-3.1839,-3.1829,-3.1881,-3.1908,-3.1911,-3.1921,-3.1889,-3.2006,-3.2018,-3.2028,-3.2065,-3.208,-3.1901,-3.1901,-3.19,-3.19,0,-3.1952,-3.1975,-3.2009,-3.2006,-3.2014,-3.205,-3.2014,-3.2027,-3.1998,-3.1979,-3.2018,-3.2005,-3.2013,-3.2023,-3.1995,-3.2071,-3.2053,-3.2014,-3.1956,-3.2051,-3.2085,-3.2099,-3.1909,-3.1907,-3.1905,-3.1904,0,0,-3.2116,-3.2089,-3.2103,-3.2101,-3.2086,-3.2103,-3.2137,-3.2145,-3.2157,-3.2156,-3.2184,-3.2208,-3.2172,-3.2174,-3.2145,-3.2174,-3.2262,-3.2131,-3.213,-3.2156,-3.2345,-3.2375,-3.2391,-3.2236,-3.2239,-3.2241,-3.2346,0,-3.222,-3.2275,-3.2239,-3.23,-3.2321,-3.2265,-3.2294,-3.2289,-3.2272,-3.2288,-3.2268,-3.2287,-3.2237,-3.2238,-3.2265,-3.2246,-3.2299,-3.2238,-3.2262,-3.2263,-3.2265,-3.2409,-3.244,-3.254,-3.2359,-3.2361,-3.2362,0,-3.2349,-3.2353,-3.2417,-3.2398,-3.2406,-3.2433,-3.2438,-3.2453,-3.2446,-3.2432,-3.2435,-3.2399,-3.2431,-3.2374,-3.2418,-3.2378,-3.2385,-3.2378,-3.2381,-3.2381,-3.2318,-3.2414,-3.257,-3.2586,-3.2383,-3.2381,-3.238,0,-3.2462,-3.2484,-3.2525,-3.2525,-3.2505,-3.2525,-3.2518,-3.2508,-3.2515,-3.252,-3.2524,-3.2533,-3.2537,-3.2545,-3.2513,-3.2474,-3.2561,-3.2502,-3.255,-3.2551,-3.2571,-3.257,-3.2731,-3.2577,-3.2576,-3.2576,-3.2576,0,-3.2582,-3.2623,-3.2575,-3.2601,-3.2645,-3.2604,-3.2649,-3.2636,-3.2628,-3.265,-3.2602,-3.2624,-3.258,-3.2597,-3.2572,-3.2613,-3.2615,-3.2605,-3.2598,-3.2609,-3.2611,-3.2613,-3.2605,-3.258,-3.2579,-3.2578,-3.2578,0,-3.2716,-3.2686,-3.2726,-3.2704,-3.2699,-3.2733,-3.2714,-3.2737,-3.2717,-3.2745,-3.275,-3.2718,-3.2736,-3.2705,-3.2719,-3.2702,-3.2759,-3.2741,-3.2761,-3.2756,-3.2807,-3.2802,-3.2975,-3.2996,-3.2828,-3.283,-3.2831,0,-3.2794,-3.2825,-3.2806,-3.2817,-3.2812,-3.2831,-3.2838,-3.2799,-3.2808,-3.2803,-3.2827,-3.2841,-3.285,-3.2882,-3.2861,-3.2872,-3.2854,-3.2914,-3.2855,-3.2866,-3.2855,-3.2853,-3.2856,-3.2926,-3.2928,-3.2929,-3.2931,0,-3.2937,-3.2921,-3.2933,-3.294,-3.295,-3.2954,-3.2955,-3.2967,-3.2925,-3.2939,-3.2956,-3.2964,-3.2978,-3.2993,-3.2999,-3.2992,-3.2955,-3.2949,-3.2961,-3.2973,-3.2983,-3.2978,-3.2794,-3.2945,-3.2944,-3.2943,-3.2942,-3.2942,-3.3046,-3.307,-3.306,-3.3076,-3.3072,-3.3074,-3.3094,-3.3076,-3.3091,-3.3099,-3.3075,-3.3099,-3.3092,-3.3096,-3.3093,-3.3111,-3.3085,-3.3102,-3.3106,-3.3111,-3.3119,-3.2981,-3.3112,-3.3112,-3.3112,-3.3111,-3.3111,0,-3.3186,-3.3177,-3.3191,-3.3194,-3.3206,-3.317,-3.3169,-3.3181,-3.3203,-3.3199,-3.3209,-3.323,-3.3245,-3.3225,-3.3236,-3.3255,-3.3238,-3.3259,-3.3257,-3.3256,-3.3142,-3.3131,-3.3272,-3.3272,-3.3272,-3.3272,-3.3272,-3.3272,-3.326,-3.3299,-3.3282,-3.332,-3.331,-3.3333,-3.3336,-3.3337,-3.3334,-3.336,-3.3371,-3.3358,-3.3348,-3.3358,-3.337,-3.3364,-3.337,-3.3397,-3.3385,-3.328,-3.3264,-3.3249,-3.3238,-3.3399,-3.3399,-3.3497,-3.3498,-3.3499]},{"header":{"parameterUnit":"m.s-1","parameterCategory":1,"la1":30.2991,"la2":30.254,"lo1":-89.0895,"lo2":-89.0444,"dy":0.0017,"dx":0.0017,"nx":28,"ny":28,"refTime":"2025-12-03T03:00:00:Z","depth":0,"parameterNumber":3,"parameterNumberName":"V-component_of_WINDS"},"data":[0,0,0,0,0,0,0,0,0,0,0,0,0,0,0,0,0,0,0,0,0,0,0,0,0,0,0,0,0,0,0,0,0,0,0,0,0,0,0,0,0,0,0,0,0,0,0,0,0,0,0,0,0,0,0,0,0,0,-2.1234,-2.1234,0,-2.1234,-2.1234,-2.1234,-2.1201,-2.12,-2.1199,-2.1199,-2.1198,-2.1199,-2.12,0,0,0,0,0,0,0,0,0,0,0,0,0,-2.1205,-2.1205,-2.1234,-2.1234,-2.1234,-2.1234,-2.1234,-2.1234,-2.1201,-2.12,-2.1199,-2.1198,-2.1198,-2.1199,-2.12,0,0,0,0,0,0,0,0,0,0,0,0,0,-2.1212,-2.1206,-2.1234,-2.1218,-2.1216,-2.1234,-2.1234,-2.1234,-2.1202,-2.12,-2.1199,-2.1198,-2.1198,-2.1199,-2.12,-2.1234,0,0,-2.1204,-2.1204,0,0,0,0,0,0,0,0,-2.1212,-2.1213,-2.122,-2.1219,-2.1217,-2.1216,-2.1224,-2.1234,-2.1202,-2.1207,-2.1199,-2.1197,-2.1205,-2.1206,-2.1209,-2.1234,-2.1234,-2.1204,-2.1205,-2.1205,-2.1205,0,0,0,0,0,0,0,-2.1211,-2.1213,-2.1234,-2.122,-2.1219,-2.121,-2.121,-2.1225,-2.1214,-2.1207,-2.1204,-2.1205,-2.1204,-2.1208,-2.1208,-2.1233,-2.1204,-2.1205,-2.1206,-2.1206,-2.1285,-2.1286,0,0,0,0,0,0,-2.1213,-2.1213,-2.1234,-2.1234,-2.1211,-2.1212,-2.1211,-2.1218,-2.1213,-2.1211,-2.1206,-2.1203,-2.1206,-2.1207,-2.1208,-2.1247,-2.1205,-2.1206,-2.1207,-2.1284,-2.1285,-2.1287,0,0,0,0,0,0,-2.1213,-2.1215,-2.1234,-2.1223,-2.1225,-2.1214,-2.1221,-2.1219,-2.1222,-2.1213,-2.121,-2.1211,-2.1205,-2.1207,-2.1227,-2.1246,-2.1207,-2.1208,-2.1282,-2.1284,-2.1286,-2.1325,0,0,0,0,0,0,-2.1212,-2.1215,-2.1228,-2.1223,-2.1225,-2.1254,-2.1222,-2.122,-2.1224,-2.1221,-2.1217,-2.1216,-2.1204,-2.1226,-2.1229,-2.1247,-2.1209,-2.128,-2.1283,-2.1286,-2.1322,-2.1328,-2.1333,0,0,0,0,0,-2.1211,-2.1239,-2.1229,-2.1232,-2.1241,-2.1255,-2.1256,-2.1242,-2.1226,-2.1238,-2.1232,-2.1216,-2.1244,-2.1228,-2.1231,-2.1251,-2.1279,-2.1282,-2.1285,-2.1319,-2.1326,-2.1333,0,0,0,0,0,0,-2.1247,-2.1238,-2.1227,-2.1254,-2.1256,-2.1249,-2.1265,-2.1251,-2.1257,-2.1253,-2.1236,-2.1236,-2.1259,-2.1257,-2.124,-2.1282,-2.1258,-2.1262,-2.1283,-2.129,-2.1296,-2.1296,-2.121,0,0,0,0,0,-2.1258,-2.127,-2.1261,-2.1286,-2.1287,-2.1276,-2.1281,-2.1271,-2.1271,-2.1272,-2.1267,-2.1268,-2.1277,-2.1283,-2.1291,-2.1321,-2.132,-2.1336,-2.1341,-2.1346,-2.135,-2.1365,-2.1372,-2.1297,-2.1297,-2.1297,0,0,-2.1281,-2.1277,-2.1286,-2.1293,-2.1293,-2.1305,-2.1277,-2.1291,-2.13,-2.1274,-2.1293,-2.129,-2.129,-2.1315,-2.1326,-2.1314,-2.137,-2.135,-2.1354,-2.1355,-2.1369,-2.1376,-2.1382,-2.1299,-2.1299,-2.1299,0,0,-2.1329,-2.1328,-2.1348,-2.1348,-2.1348,-2.134,-2.1345,-2.1341,-2.1337,-2.1356,-2.1337,-2.1347,-2.1363,-2.1364,-2.1366,-2.1414,-2.1398,-2.1417,-2.1447,-2.1462,-2.1467,-2.1473,-2.1489,-2.1496,-2.142,-2.142,-2.142,0,-2.1357,-2.1375,-2.136,-2.1376,-2.138,-2.1356,-2.1377,-2.1377,-2.138,-2.1383,-2.1369,-2.1388,-2.1386,-2.1411,-2.1423,-2.1426,-2.1431,-2.1417,-2.1468,-2.1473,-2.1477,-2.1493,-2.15,-2.1423,-2.1422,-2.1422,-2.1422,0,-2.141,-2.1423,-2.1439,-2.1442,-2.1448,-2.1466,-2.1453,-2.146,-2.1449,-2.1443,-2.1462,-2.1459,-2.1466,-2.1471,-2.146,-2.1494,-2.1487,-2.1471,-2.1447,-2.1487,-2.1502,-2.1508,-2.1426,-2.1425,-2.1424,-2.1424,0,0,-2.1481,-2.1475,-2.1481,-2.1482,-2.148,-2.1489,-2.1506,-2.1512,-2.1519,-2.1521,-2.1534,-2.1548,-2.1533,-2.1536,-2.1525,-2.1538,-2.1576,-2.152,-2.152,-2.1531,-2.1613,-2.1625,-2.1633,-2.1566,-2.1567,-2.1568,-2.1613,0,-2.1528,-2.1556,-2.1543,-2.1572,-2.1584,-2.1561,-2.1576,-2.1576,-2.157,-2.1579,-2.1572,-2.1582,-2.1562,-2.1563,-2.1575,-2.1569,-2.1592,-2.1565,-2.1578,-2.1578,-2.1579,-2.164,-2.1653,-2.1696,-2.1619,-2.162,-2.162,0,-2.1586,-2.159,-2.1621,-2.1616,-2.1621,-2.1634,-2.1638,-2.1647,-2.1646,-2.1641,-2.1644,-2.163,-2.1646,-2.1621,-2.1643,-2.1625,-2.1629,-2.1627,-2.1628,-2.1629,-2.1602,-2.1643,-2.171,-2.1716,-2.1629,-2.1628,-2.1628,0,-2.1634,-2.1648,-2.1668,-2.167,-2.1664,-2.1674,-2.1673,-2.1671,-2.1675,-2.1679,-2.1682,-2.1688,-2.1691,-2.1695,-2.1683,-2.1667,-2.1706,-2.1681,-2.1702,-2.1703,-2.1712,-2.1711,-2.178,-2.1714,-2.1714,-2.1714,-2.1714,0,-2.1688,-2.1707,-2.169,-2.1702,-2.1724,-2.1708,-2.1729,-2.1725,-2.1723,-2.1734,-2.1715,-2.1726,-2.1709,-2.1718,-2.1709,-2.1728,-2.1729,-2.1725,-2.1723,-2.1727,-2.1728,-2.173,-2.1727,-2.1716,-2.1715,-2.1715,-2.1715,0,-2.1746,-2.1735,-2.1755,-2.1748,-2.1747,-2.1763,-2.1757,-2.1768,-2.1761,-2.1775,-2.1778,-2.1766,-2.1776,-2.1764,-2.1772,-2.1766,-2.1792,-2.1785,-2.1792,-2.179,-2.1812,-2.181,-2.1885,-2.1894,-2.1822,-2.1823,-2.1824,0,-2.1781,-2.1795,-2.179,-2.1796,-2.1795,-2.1805,-2.181,-2.1795,-2.18,-2.18,-2.1811,-2.1819,-2.1825,-2.1841,-2.1833,-2.184,-2.1832,-2.1858,-2.1833,-2.1837,-2.1833,-2.1832,-2.1833,-2.1863,-2.1864,-2.1865,-2.1865,0,-2.1844,-2.1837,-2.1844,-2.185,-2.1856,-2.1859,-2.1861,-2.1867,-2.1851,-2.1858,-2.1868,-2.1872,-2.188,-2.1888,-2.1893,-2.1891,-2.1876,-2.1873,-2.1879,-2.1883,-2.1887,-2.1885,-2.1806,-2.1872,-2.1871,-2.1871,-2.187,-2.187,-2.1891,-2.1903,-2.1901,-2.1909,-2.1909,-2.1911,-2.1921,-2.1915,-2.1923,-2.1928,-2.1919,-2.1931,-2.1929,-2.1933,-2.1933,-2.1942,-2.1931,-2.1939,-2.1941,-2.1943,-2.1946,-2.1886,-2.1943,-2.1943,-2.1942,-2.1942,-2.1942,0,-2.1953,-2.195,-2.1958,-2.1962,-2.1968,-2.1953,-2.1954,-2.1961,-2.1972,-2.1972,-2.1977,-2.1988,-2.1996,-2.1989,-2.1995,-2.2003,-2.1997,-2.2005,-2.2005,-2.2004,-2.1956,-2.195,-2.2011,-2.2011,-2.2011,-2.2011,-2.2011,-2.2011,-2.1986,-2.2005,-2.1998,-2.2017,-2.2014,-2.2026,-2.2028,-2.2029,-2.2029,-2.2042,-2.2048,-2.2043,-2.204,-2.2046,-2.2052,-2.205,-2.2053,-2.2065,-2.206,-2.2015,-2.2008,-2.2002,-2.1997,-2.2066,-2.2066,-2.2108,-2.2109,-2.2109]}]]